Showing default

MINXSS-2, 43758

Orbit data source: Space-Track

MINXSS-2, 43758 is a payload satellite owned by CU-LASP (US) in SSO that was launched on Mon, 03 Dec 2018 UTC via an FALCON 9 launch vehicle from the Air Force Western Test Range (AFWTR). Payloads include a variety of satellites, spacecraft, and rockets equipped with specific instruments for various scientific and technological missions. These include communications satellites like Starlink; space stations such as the ISS; scientific satellites like the Hubble; Earth observation satellites from companies like Planet Labs, Umbra, and HawkEye 360; GPS; miniature CubeSats for education and research; and military/defense satellites.

Loading next visibility...
MINXSS-2 details
Identifier
43758, 2018-099A
Orbit
SSO
Last TLE update8 hours ago
Origin
Flag of USCU-LASP (US)
ManufacturerCU-LASP
MissionOperational Amateur Astronomy
Bus & MotorCUBESAT 3U, Unknown motor
Mass3.52 kg wet, 3.52 kg dry
Launch date (UTC)
2018-12-03 (6 years ago)
Launch vehicle
FALCON 9
Launch site
Air Force Western Test Range (AFWTR)
Object type
Payload
Rocket body
Debris
Shape & HBRBox + 2 Pan + 1 Ant, 0.8 m
Radar Cross Section0.075 m², Medium (>0.1 m² and < 1m²)

Expand to show TLE details & history

TLE from 8 hours ago
0 MINXSS-2
1 43758U 18099A   24361.17202606  .00022818  00000-0  11292-2 0  9992
2 43758  97.5294  61.3957 0014257  20.8564 339.3248 15.17718409331811
Epoch: 2024-12-26T04:07Z
Definitive object data (Epoch: 2024-12-26T04:07:43.051Z)
Latitude-0.00006°
Longitude-95.68891°
Altitude506.63 km
Speed7.616 km/s
True Right ascension04h 05m 34s
True Declination0° 00' 00"
Sunlit
Object was in full shadow at TLE epoch
Visualization TLE readout
Latitude52.3875°
Longitude94.48537°
Altitude524.181 km
Speed7.605 km/s
Apparent Right ascension20h 45m 05s
Apparent Declination14° 15' 54"
Sunlit
Object is in daylight
Visualization observer readout
Local Sidereal Time11:57:22
Azimuth50.021° ENE
Elevation-19.792°
Doppler factor1
Orbital elements
Apogee altitude519.532 km
Perigee altitude499.892 km
Semi-major axis6,887.849 km
Eccentricity0.0014257
Inclination97.5294°
RAAN61.3957°
Arg. of periapsis20.8564°
True anomaly339.26702°
Mean anomaly339.3248°
Eccentric anomaly339.29592°
Mean motion3.7968 °/min
BSTAR0.0011292
Orbital period94.82 mins
Loading maneuver chart data...
Loading historical data...
Loading historical data...
Loading historical data...
Loading historical data...
Loading historical data...
Loading historical data...
Loading historical data...

MINXSS-2 Visibility forecast

Observer location: undefined°, undefined

Span
Click to sort rows by Start time (UTC) header in descending order
Start Az.
Max El. time (UTC)
Max El. Az.
Max El.
End time (UTC)
End Az.
6 mins2024-12-26 17:20:50.072Z2.258° NNE2024-12-26 17:23:50.072Z283.41° WNW40.895°2024-12-26 17:26:50.072Z207.04° SW
5 mins2024-12-27 04:00:50.072Z138.159° SSE2024-12-27 04:02:50.072Z57.915° ENE37.421°2024-12-27 04:05:50.072Z359.657° N
|